This is the latest recevied weather packets stored in our database for station/object W9QL-13. If no packets are shown the sender has not sent any weather packets the latest 10 day(s).
| Time | Temp. | Humidity | Pressure | Rain* | Wind** | Luminosity | Snow |
|---|---|---|---|---|---|---|---|
| 1777918825 | 25° C | 24% | 998 hPa | 0 mm | - | - | - |
| 1777918495 | 25.56° C | 25% | 998 hPa | 0 mm | - | - | - |
| 1777918195 | 25.56° C | 24% | 998 hPa | 0 mm | - | - | - |
| 1777917865 | 25.56° C | 24% | 998.1 hPa | 0 mm | - | - | - |
| 1777917565 | 25.56° C | 25% | 998.1 hPa | 0 mm | - | - | - |
| 1777917265 | 25.56° C | 26% | 998.2 hPa | 0 mm | - | - | - |
| 1777916965 | 25.56° C | 26% | 998.2 hPa | 0 mm | - | - | - |
| 1777916635 | 25.56° C | 26% | 998.2 hPa | 0 mm | - | - | - |
| 1777916308 | 25.56° C | 25% | 998.3 hPa | 0 mm | - | - | - |
| 1777916005 | 25.56° C | 24% | 998.4 hPa | 0 mm | - | - | - |
| 1777915704 | 25.56° C | 28% | 998.5 hPa | 0 mm | - | - | - |
| 1777915404 | 25° C | 24% | 998.7 hPa | 0 mm | - | - | - |
| 1777915104 | 25° C | 25% | 998.9 hPa | 0 mm | - | - | - |
| 1777914774 | 25° C | 24% | 999 hPa | 0 mm | - | - | - |
| 1777914445 | 25° C | 25% | 999 hPa | 0 mm | - | - | - |
| 1777914144 | 25° C | 27% | 999.1 hPa | 0 mm | - | - | - |
| 1777913844 | 25° C | 26% | 999.2 hPa | 0 mm | - | - | - |
| 1777913544 | 25° C | 27% | 999.1 hPa | 0 mm | - | - | - |
| 1777913214 | 25° C | 28% | 999.3 hPa | 0 mm | - | - | - |
| 1777912884 | 25° C | 29% | 999.4 hPa | 0 mm | - | - | - |
| 1777912584 | 25° C | 28% | 999.4 hPa | 0 mm | - | - | - |
| 1777912286 | 25° C | 27% | 999.6 hPa | 0 mm | - | - | - |
| 1777911984 | 25° C | 27% | 999.6 hPa | 0 mm | - | - | - |
| 1777911684 | 24.44° C | 28% | 999.7 hPa | 0 mm | - | - | - |
| 1777911384 | 24.44° C | 31% | 999.8 hPa | 0 mm | - | - | - |
* Rain latest hour (hover to see other rain measurements)
** Current wind speed in m/s (hover to see current wind gust speed)